TimeEST,TemperatureF,Dew PointF,Humidity,Sea Level PressureIn,VisibilityMPH,Wind Direction,Wind SpeedMPH,Gust SpeedMPH,PrecipitationIn,Events,Conditions,WindDirDegrees,DateUTC
12:54 AM,30.0,25.0,82,29.99,10.0,SW,6.9,-,N/A,,Scattered Clouds,230,2013-01-17 05:54:00
1:08 AM,30.2,24.8,80,29.95,10.0,WSW,6.9,-,N/A,,Mostly Cloudy,240,2013-01-17 06:08:00
1:54 AM,30.0,25.0,82,30.00,10.0,WSW,8.1,18.4,N/A,,Overcast,240,2013-01-17 06:54:00
2:54 AM,30.0,24.1,79,30.01,10.0,WSW,5.8,-,N/A,,Overcast,240,2013-01-17 07:54:00
3:54 AM,30.0,24.1,79,30.03,10.0,WSW,8.1,-,N/A,,Overcast,240,2013-01-17 08:54:00
4:54 AM,28.9,26.1,89,30.04,8.0,WSW,6.9,-,N/A,,Overcast,240,2013-01-17 09:54:00
5:54 AM,30.0,25.0,82,30.06,9.0,SW,6.9,-,N/A,,Overcast,220,2013-01-17 10:54:00
6:54 AM,30.0,25.0,82,30.07,9.0,SW,8.1,-,N/A,,Overcast,230,2013-01-17 11:54:00
7:49 AM,30.2,24.8,80,30.04,9.0,WSW,5.8,-,N/A,,Overcast,250,2013-01-17 12:49:00
7:54 AM,30.0,25.0,82,30.09,9.0,WSW,5.8,-,N/A,,Overcast,250,2013-01-17 12:54:00
8:54 AM,30.0,26.1,85,30.12,6.0,West,6.9,-,N/A,,Overcast,270,2013-01-17 13:54:00
9:37 AM,30.2,26.6,86,30.09,6.0,WSW,5.8,-,N/A,,Overcast,240,2013-01-17 14:37:00
9:54 AM,30.0,26.1,85,30.15,5.0,WSW,6.9,-,N/A,,Overcast,240,2013-01-17 14:54:00
10:27 AM,30.2,26.6,86,30.09,5.0,West,4.6,-,N/A,,Haze,260,2013-01-17 15:27:00
10:54 AM,30.9,27.0,85,30.14,6.0,SW,6.9,-,N/A,,Overcast,230,2013-01-17 15:54:00
11:38 AM,32.0,26.6,80,30.08,7.0,WSW,5.8,-,N/A,,Overcast,250,2013-01-17 16:38:00
11:54 AM,32.0,26.1,79,30.12,9.0,West,8.1,-,N/A,,Overcast,260,2013-01-17 16:54:00
12:54 PM,32.0,25.0,75,30.08,10.0,WNW,6.9,-,N/A,,Overcast,290,2013-01-17 17:54:00
1:54 PM,32.0,25.0,75,30.10,10.0,West,6.9,-,N/A,,Overcast,260,2013-01-17 18:54:00
2:54 PM,32.0,25.0,75,30.08,10.0,WSW,4.6,-,N/A,,Overcast,250,2013-01-17 19:54:00
3:54 PM,32.0,24.1,73,30.09,10.0,WSW,4.6,-,N/A,,Mostly Cloudy,250,2013-01-17 20:54:00
4:17 PM,32.0,24.8,75,30.04,10.0,WSW,5.8,-,N/A,,Overcast,240,2013-01-17 21:17:00
4:35 PM,32.0,24.8,75,30.05,10.0,WSW,5.8,-,N/A,,Mostly Cloudy,240,2013-01-17 21:35:00
4:54 PM,30.9,24.1,76,30.10,10.0,WSW,6.9,-,N/A,,Mostly Cloudy,240,2013-01-17 21:54:00
5:54 PM,30.9,24.1,76,30.12,10.0,SW,5.8,-,N/A,,Partly Cloudy,230,2013-01-17 22:54:00
6:54 PM,30.0,25.0,82,30.12,10.0,WSW,5.8,-,N/A,,Clear,240,2013-01-17 23:54:00
7:54 PM,30.0,25.0,82,30.12,10.0,WSW,5.8,-,N/A,,Clear,240,2013-01-18 00:54:00
8:54 PM,30.9,25.0,79,30.12,9.0,West,9.2,-,N/A,,Mostly Cloudy,260,2013-01-18 01:54:00
9:54 PM,30.9,25.0,79,30.09,6.0,West,6.9,17.3,0.00,Snow,Light Snow,280,2013-01-18 02:54:00
10:54 PM,30.0,21.9,72,30.07,10.0,West,4.6,-,0.00,,Partly Cloudy,280,2013-01-18 03:54:00
11:54 PM,28.9,21.9,75,30.09,10.0,West,9.2,-,N/A,,Mostly Cloudy,270,2013-01-18 04:54:00